TimeICT,TemperatureF,Dew PointF,Humidity,Sea Level PressureIn,VisibilityMPH,Wind Direction,Wind SpeedMPH,Gust SpeedMPH,PrecipitationIn,Events,Conditions,WindDirDegrees,DateUTC
12:00 AM,80.6,75.2,84,29.86,3.7,East,2.3,-,N/A,,Mostly Cloudy,90,2012-10-14 17:00:00
1:00 AM,79,74,81,29.85,4,Calm,Calm,,,,Mist,,2012-10-14 18:00:00
1:00 AM,78.8,75.2,89,29.83,4.3,Calm,Calm,-,N/A,,Mostly Cloudy,0,2012-10-14 18:00:00
2:00 AM,77.0,73.4,89,29.83,4.3,Calm,Calm,-,N/A,,Mostly Cloudy,0,2012-10-14 19:00:00
3:00 AM,77.0,73.4,89,29.86,4.3,NE,2.3,-,N/A,,Mostly Cloudy,50,2012-10-14 20:00:00
4:00 AM,75.2,71.6,89,29.86,3.7,Calm,Calm,-,N/A,,Unknown,0,2012-10-14 21:00:00
6:00 AM,73.4,69.8,88,29.89,1.9,North,1.2,-,N/A,,Mostly Cloudy,10,2012-10-14 23:00:00
6:30 AM,73.4,69.8,88,29.89,1.9,NNE,1.2,-,N/A,,Mostly Cloudy,30,2012-10-14 23:30:00
7:00 AM,75,71,85,29.92,2,NNE,2.3,,,,Mist,30,2012-10-15 00:00:00
7:00 AM,75.2,69.8,83,29.92,1.9,NNE,2.3,-,N/A,,Mostly Cloudy,30,2012-10-15 00:00:00
8:00 AM,78.8,71.6,78,29.92,2.5,NNE,2.3,-,N/A,,Mostly Cloudy,30,2012-10-15 01:00:00
9:00 AM,82.4,73.4,74,29.95,2.5,South,2.3,-,N/A,,Mostly Cloudy,180,2012-10-15 02:00:00
10:00 AM,86.0,75.2,70,29.95,3.7,South,2.3,-,N/A,,Mostly Cloudy,180,2012-10-15 03:00:00
11:00 AM,87.8,75.2,66,29.95,3.7,SSE,2.3,-,N/A,,Mostly Cloudy,150,2012-10-15 04:00:00
12:00 PM,89.6,71.6,55,29.92,4.3,South,6.9,-,N/A,,Mostly Cloudy,180,2012-10-15 05:00:00
1:00 PM,90,71,44,29.88,4,North,2.3,,,,Haze,0,2012-10-15 06:00:00
1:00 PM,89.6,71.6,55,29.86,4.3,North,2.3,-,N/A,,Mostly Cloudy,360,2012-10-15 06:00:00
2:00 PM,89.6,71.6,55,29.86,4.3,North,2.3,-,N/A,,Mostly Cloudy,360,2012-10-15 07:00:00
3:00 PM,89.6,71.6,55,29.83,4.3,WNW,3.5,-,N/A,,Mostly Cloudy,290,2012-10-15 08:00:00
4:00 PM,91.4,68.0,46,29.80,4.3,WNW,4.6,-,N/A,,Mostly Cloudy,290,2012-10-15 09:00:00
5:00 PM,89.6,71.6,55,29.83,4.3,North,1.2,-,N/A,,Mostly Cloudy,360,2012-10-15 10:00:00
5:30 PM,87.8,71.6,58,29.83,4.3,NE,1.2,-,N/A,,Mostly Cloudy,40,2012-10-15 10:30:00
6:00 PM,86.0,73.4,66,29.83,3.7,North,1.2,-,N/A,,Mostly Cloudy,360,2012-10-15 11:00:00
7:00 PM,85,74,62,29.86,4,NNE,2.3,,,,Mist,20,2012-10-15 12:00:00
7:00 PM,86.0,73.4,66,29.83,3.7,NNE,2.3,-,N/A,,Mostly Cloudy,20,2012-10-15 12:00:00
8:00 PM,84.2,73.4,70,29.86,3.7,NE,2.3,-,N/A,,Mostly Cloudy,40,2012-10-15 13:00:00
9:00 PM,82.4,75.2,79,29.89,3.7,SE,2.3,-,N/A,,Mostly Cloudy,130,2012-10-15 14:00:00
10:00 PM,82.4,75.2,79,29.89,3.7,NE,2.3,-,N/A,,Mostly Cloudy,40,2012-10-15 15:00:00
11:00 PM,80.6,75.2,84,29.89,3.7,NNE,2.3,-,N/A,,Mostly Cloudy,20,2012-10-15 16:00:00